STARLINK-34355

Last updated on Thu Jul 03 2025 00:02:06 GMT+0000 (Coordinated Universal Time)

1 64306U 25123R 25183.58335648 .00056348 00000+0 91353-3 0 9992 2 64306 69.9998 120.0796 0003330 269.3690 325.5062 15.52477045 4962
UTC large
Height (km)
Speed (km/s)
/
Latitude / Longitude
Inclination (degrees)
Orbital Period (minutes)
Azimuth
Elevation
Range (km)
Doppler Factor

Next 0 passes for location: London (51.5072 / 0.1276)

Sorry there are no passes over London.